Time,TemperatureF,DewpointF,PressureIn,WindDirection,WindDirectionDegrees,WindSpeedMPH,WindSpeedGustMPH,Humidity,HourlyPrecipIn,Conditions,Clouds,dailyrainin,SoftwareType,DateUTC
2013-03-10 00:01:00,51.0,38.0,29.84,South,175,7.0,14.0,60,0.00,,,0.05,,2013-03-10 06:01:00,
2013-03-10 00:11:00,52.0,38.0,29.83,SSE,160,6.0,12.0,58,0.00,,,0.05,,2013-03-10 06:11:00,
2013-03-10 00:22:00,52.0,38.0,29.83,SSE,160,6.0,12.0,58,0.00,,,0.05,,2013-03-10 06:22:00,
2013-03-10 00:32:00,52.0,38.0,29.83,SSE,160,6.0,12.0,58,0.00,,,0.05,,2013-03-10 06:32:00,
2013-03-10 00:42:00,53.0,37.0,29.83,South,172,9.0,15.0,54,0.00,,,0.05,,2013-03-10 06:42:00,
2013-03-10 00:52:00,53.0,37.0,29.83,South,172,9.0,15.0,54,0.00,,,0.05,,2013-03-10 06:52:00,
2013-03-10 01:01:00,53.0,37.0,29.83,South,172,9.0,15.0,54,0.00,,,0.05,,2013-03-10 07:01:00,
2013-03-10 01:11:00,53.0,38.0,29.83,South,175,7.0,15.0,56,0.00,,,0.05,,2013-03-10 07:11:00,
2013-03-10 01:21:00,53.0,38.0,29.83,South,175,7.0,15.0,56,0.00,,,0.05,,2013-03-10 07:21:00,
2013-03-10 01:31:00,53.0,38.0,29.83,South,175,7.0,15.0,56,0.00,,,0.05,,2013-03-10 07:31:00,
2013-03-10 01:42:00,53.0,39.0,29.81,SSE,151,5.0,14.0,58,0.00,,,0.05,,2013-03-10 07:42:00,
2013-03-10 01:52:00,53.0,39.0,29.81,SSE,151,5.0,14.0,58,0.00,,,0.05,,2013-03-10 07:52:00,
2013-03-10 03:01:00,53.0,39.0,29.81,SSE,151,5.0,14.0,58,0.00,,,0.05,,2013-03-10 08:01:00,
2013-03-10 03:11:00,53.0,38.0,29.80,South,169,5.0,13.0,57,0.00,,,0.05,,2013-03-10 08:11:00,
2013-03-10 03:21:00,53.0,38.0,29.80,South,169,5.0,13.0,57,0.00,,,0.05,,2013-03-10 08:21:00,
2013-03-10 03:31:00,53.0,38.0,29.80,South,169,5.0,13.0,57,0.00,,,0.05,,2013-03-10 08:31:00,
2013-03-10 03:42:00,54.0,38.0,29.80,SSE,160,7.0,11.0,55,0.00,,,0.05,,2013-03-10 08:42:00,
2013-03-10 03:52:00,54.0,38.0,29.80,SSE,160,7.0,11.0,55,0.00,,,0.05,,2013-03-10 08:52:00,
2013-03-10 04:01:00,54.0,38.0,29.80,SSE,160,7.0,11.0,55,0.00,,,0.05,,2013-03-10 09:01:00,
2013-03-10 04:11:00,54.0,40.0,29.81,South,174,4.0,10.0,59,0.00,,,0.05,,2013-03-10 09:11:00,
2013-03-10 04:21:00,54.0,40.0,29.81,South,174,4.0,10.0,59,0.00,,,0.05,,2013-03-10 09:21:00,
2013-03-10 04:31:00,54.0,40.0,29.81,South,174,4.0,10.0,59,0.00,,,0.05,,2013-03-10 09:31:00,
2013-03-10 04:42:00,54.0,40.0,29.81,SSE,158,3.0,6.0,59,0.00,,,0.05,,2013-03-10 09:42:00,
2013-03-10 04:52:00,54.0,40.0,29.81,SSE,158,3.0,6.0,59,0.00,,,0.05,,2013-03-10 09:52:00,
2013-03-10 05:01:00,54.0,40.0,29.81,SSE,158,3.0,6.0,59,0.00,,,0.05,,2013-03-10 10:01:00,
2013-03-10 05:11:00,54.0,40.0,29.81,SSE,158,3.0,6.0,59,0.00,,,0.05,,2013-03-10 10:11:00,
2013-03-10 05:21:00,53.0,40.0,29.82,SSE,151,3.0,6.0,61,0.00,,,0.05,,2013-03-10 10:21:00,
2013-03-10 05:32:00,53.0,40.0,29.82,SSE,151,3.0,6.0,61,0.00,,,0.05,,2013-03-10 10:32:00,
2013-03-10 05:42:00,53.0,40.0,29.82,SSE,168,3.0,10.0,62,0.00,,,0.05,,2013-03-10 10:42:00,
2013-03-10 05:52:00,53.0,40.0,29.82,SSE,168,3.0,10.0,62,0.00,,,0.05,,2013-03-10 10:52:00,
2013-03-10 06:01:00,53.0,40.0,29.82,SSE,168,3.0,10.0,62,0.00,,,0.05,,2013-03-10 11:01:00,
2013-03-10 06:12:00,53.0,40.0,29.81,SE,137,4.0,10.0,62,0.00,,,0.05,,2013-03-10 11:12:00,
2013-03-10 06:21:00,53.0,40.0,29.81,SE,137,4.0,10.0,62,0.00,,,0.05,,2013-03-10 11:21:00,
2013-03-10 06:31:00,53.0,40.0,29.81,SE,137,4.0,10.0,62,0.00,,,0.05,,2013-03-10 11:31:00,
2013-03-10 06:42:00,53.0,40.0,29.81,SE,137,4.0,10.0,62,0.00,,,0.05,,2013-03-10 11:42:00,
2013-03-10 06:52:00,53.0,41.0,29.79,SSE,150,7.0,12.0,63,0.00,,,0.05,,2013-03-10 11:52:00,
2013-03-10 07:01:00,53.0,41.0,29.79,SSE,150,7.0,12.0,63,0.00,,,0.05,,2013-03-10 12:01:00,
2013-03-10 07:11:00,53.0,41.0,29.79,SSE,150,7.0,12.0,63,0.00,,,0.05,,2013-03-10 12:11:00,
2013-03-10 07:21:00,52.0,41.0,29.78,ESE,123,6.0,14.0,66,0.00,,,0.05,,2013-03-10 12:21:00,
2013-03-10 07:31:00,52.0,41.0,29.78,ESE,123,6.0,14.0,66,0.00,,,0.05,,2013-03-10 12:31:00,
2013-03-10 07:42:00,52.0,41.0,29.78,ESE,123,6.0,14.0,66,0.00,,,0.05,,2013-03-10 12:42:00,
2013-03-10 07:52:00,52.0,41.0,29.79,SE,143,6.0,11.0,66,0.00,,,0.05,,2013-03-10 12:52:00,
2013-03-10 08:01:00,52.0,41.0,29.79,SE,143,6.0,11.0,66,0.00,,,0.05,,2013-03-10 13:01:00,
2013-03-10 08:11:00,52.0,41.0,29.79,SE,143,6.0,11.0,66,0.00,,,0.05,,2013-03-10 13:11:00,
2013-03-10 08:21:00,53.0,42.0,29.79,South,174,4.0,12.0,67,0.00,,,0.05,,2013-03-10 13:21:00,
2013-03-10 08:31:00,53.0,42.0,29.79,South,174,4.0,12.0,67,0.00,,,0.05,,2013-03-10 13:31:00,
2013-03-10 08:42:00,53.0,42.0,29.79,South,174,4.0,12.0,67,0.00,,,0.05,,2013-03-10 13:42:00,
2013-03-10 08:52:00,53.0,43.0,29.80,SE,143,4.0,11.0,68,0.00,,,0.05,,2013-03-10 13:52:00,
2013-03-10 09:01:00,53.0,43.0,29.80,SE,143,4.0,11.0,68,0.00,,,0.05,,2013-03-10 14:01:00,
2013-03-10 09:11:00,53.0,43.0,29.80,SE,143,4.0,11.0,68,0.00,,,0.05,,2013-03-10 14:11:00,
2013-03-10 09:21:00,54.0,44.0,29.80,SE,137,5.0,12.0,69,0.00,,,0.05,,2013-03-10 14:21:00,
2013-03-10 09:32:00,54.0,44.0,29.80,SE,137,5.0,12.0,69,0.00,,,0.05,,2013-03-10 14:32:00,
2013-03-10 09:42:00,54.0,44.0,29.80,SE,137,5.0,12.0,69,0.00,,,0.05,,2013-03-10 14:42:00,
2013-03-10 09:52:00,55.0,45.0,29.80,SSE,158,5.0,9.0,69,0.00,,,0.05,,2013-03-10 14:52:00,
2013-03-10 10:01:00,55.0,45.0,29.80,SSE,158,5.0,9.0,69,0.00,,,0.05,,2013-03-10 15:01:00,
2013-03-10 10:11:00,55.0,45.0,29.80,SSE,158,5.0,9.0,69,0.00,,,0.05,,2013-03-10 15:11:00,
2013-03-10 10:21:00,56.0,46.0,29.78,SE,138,6.0,11.0,69,0.00,,,0.05,,2013-03-10 15:21:00,
2013-03-10 10:32:00,56.0,46.0,29.78,SE,138,6.0,11.0,69,0.00,,,0.05,,2013-03-10 15:32:00,
2013-03-10 10:42:00,56.0,46.0,29.78,SE,138,6.0,11.0,69,0.00,,,0.05,,2013-03-10 15:42:00,
2013-03-10 10:52:00,57.0,47.0,29.76,SE,129,6.0,13.0,68,0.00,,,0.05,,2013-03-10 15:52:00,
2013-03-10 11:01:00,57.0,47.0,29.76,SE,129,6.0,13.0,68,0.00,,,0.05,,2013-03-10 16:01:00,
2013-03-10 11:12:00,57.0,47.0,29.76,SE,129,6.0,13.0,68,0.00,,,0.05,,2013-03-10 16:12:00,
2013-03-10 11:21:00,60.0,48.0,29.76,SSE,158,8.0,17.0,65,0.00,,,0.04,,2013-03-10 16:21:00,
2013-03-10 11:31:00,60.0,48.0,29.76,SSE,158,8.0,17.0,65,0.00,,,0.04,,2013-03-10 16:31:00,
2013-03-10 11:42:00,60.0,48.0,29.76,SSE,158,8.0,17.0,65,0.00,,,0.04,,2013-03-10 16:42:00,
2013-03-10 11:52:00,59.0,48.0,29.77,SSE,154,8.0,17.0,66,0.00,,,0.04,,2013-03-10 16:52:00,
2013-03-10 12:01:00,59.0,48.0,29.77,SSE,154,8.0,17.0,66,0.00,,,0.04,,2013-03-10 17:01:00,
2013-03-10 12:11:00,59.0,48.0,29.77,SSE,154,8.0,17.0,66,0.00,,,0.04,,2013-03-10 17:11:00,
2013-03-10 12:21:00,59.0,47.0,29.77,SE,143,7.0,18.0,65,0.00,,,0.04,,2013-03-10 17:21:00,
2013-03-10 12:31:00,59.0,47.0,29.77,SE,143,7.0,18.0,65,0.00,,,0.04,,2013-03-10 17:31:00,
2013-03-10 12:41:00,59.0,47.0,29.77,SE,143,7.0,18.0,65,0.00,,,0.04,,2013-03-10 17:41:00,
2013-03-10 12:51:00,60.0,48.0,29.73,SE,135,10.0,18.0,64,0.00,,,0.04,,2013-03-10 17:51:00,
2013-03-10 13:01:00,60.0,48.0,29.73,SE,135,10.0,18.0,64,0.00,,,0.04,,2013-03-10 18:01:00,
2013-03-10 13:11:00,61.0,49.0,29.70,SE,144,8.0,20.0,64,0.00,,,0.03,,2013-03-10 18:11:00,
2013-03-10 13:21:00,61.0,49.0,29.70,SE,144,8.0,20.0,64,0.00,,,0.03,,2013-03-10 18:21:00,
2013-03-10 13:31:00,61.0,49.0,29.70,SE,144,8.0,20.0,64,0.00,,,0.03,,2013-03-10 18:31:00,
2013-03-10 13:42:00,61.0,49.0,29.70,SE,144,8.0,20.0,64,0.00,,,0.03,,2013-03-10 18:42:00,
2013-03-10 13:52:00,62.0,49.0,29.68,SSE,164,12.0,23.0,63,0.00,,,0.03,,2013-03-10 18:52:00,
2013-03-10 14:01:00,62.0,49.0,29.68,SSE,164,12.0,23.0,63,0.00,,,0.03,,2013-03-10 19:01:00,
2013-03-10 14:11:00,62.0,49.0,29.68,SSE,164,12.0,23.0,63,0.00,,,0.03,,2013-03-10 19:11:00,
2013-03-10 14:21:00,61.0,49.0,29.67,SE,141,6.0,19.0,65,0.00,,,0.00,,2013-03-10 19:21:00,
2013-03-10 14:31:00,61.0,49.0,29.67,SE,141,6.0,19.0,65,0.00,,,0.00,,2013-03-10 19:31:00,
2013-03-10 14:42:00,61.0,49.0,29.67,SE,141,6.0,19.0,65,0.00,,,0.00,,2013-03-10 19:42:00,
2013-03-10 14:53:00,60.0,49.0,29.65,SE,143,10.0,20.0,68,0.01,,,0.01,,2013-03-10 19:53:00,
2013-03-10 15:02:00,60.0,49.0,29.65,SE,143,10.0,20.0,68,0.01,,,0.01,,2013-03-10 20:02:00,
2013-03-10 15:12:00,60.0,49.0,29.65,SE,143,10.0,20.0,68,0.01,,,0.01,,2013-03-10 20:12:00,
2013-03-10 15:22:00,59.0,49.0,29.64,SSE,162,9.0,19.0,70,0.03,,,0.03,,2013-03-10 20:22:00,
2013-03-10 15:32:00,59.0,49.0,29.64,SSE,162,9.0,19.0,70,0.03,,,0.03,,2013-03-10 20:32:00,
2013-03-10 15:43:00,59.0,49.0,29.64,SSE,162,9.0,19.0,70,0.03,,,0.03,,2013-03-10 20:43:00,
2013-03-10 15:53:00,60.0,49.0,29.64,South,185,8.0,17.0,67,0.02,,,0.03,,2013-03-10 20:53:00,
2013-03-10 16:02:00,60.0,49.0,29.64,South,185,8.0,17.0,67,0.02,,,0.03,,2013-03-10 21:02:00,
2013-03-10 16:12:00,60.0,49.0,29.64,South,185,8.0,17.0,67,0.02,,,0.03,,2013-03-10 21:12:00,
2013-03-10 16:22:00,56.0,51.0,29.68,SSW,200,6.0,15.0,83,0.01,,,0.04,,2013-03-10 21:22:00,
2013-03-10 16:32:00,56.0,51.0,29.68,SSW,200,6.0,15.0,83,0.01,,,0.04,,2013-03-10 21:32:00,
2013-03-10 16:43:00,56.0,51.0,29.68,SSW,200,6.0,15.0,83,0.01,,,0.04,,2013-03-10 21:43:00,
2013-03-10 16:53:00,52.0,48.0,29.70,WSW,258,7.0,19.0,87,0.03,,,0.06,,2013-03-10 21:53:00,
2013-03-10 17:02:00,52.0,48.0,29.70,WSW,258,7.0,19.0,87,0.03,,,0.06,,2013-03-10 22:02:00,
2013-03-10 17:12:00,52.0,48.0,29.70,WSW,258,7.0,19.0,87,0.03,,,0.06,,2013-03-10 22:12:00,
2013-03-10 17:22:00,51.0,48.0,29.70,West,264,3.0,9.0,89,0.05,,,0.09,,2013-03-10 22:22:00,
2013-03-10 17:32:00,51.0,48.0,29.70,West,264,3.0,9.0,89,0.05,,,0.09,,2013-03-10 22:32:00,
2013-03-10 17:43:00,51.0,48.0,29.70,West,264,3.0,9.0,89,0.05,,,0.09,,2013-03-10 22:43:00,
2013-03-10 17:53:00,51.0,48.0,29.70,WSW,256,1.0,3.0,90,0.05,,,0.11,,2013-03-10 22:53:00,
2013-03-10 18:02:00,51.0,48.0,29.70,WSW,256,1.0,3.0,90,0.05,,,0.11,,2013-03-10 23:02:00,
2013-03-10 18:12:00,50.0,47.0,29.67,SE,125,2.0,9.0,91,0.04,,,0.13,,2013-03-10 23:12:00,
2013-03-10 18:22:00,50.0,47.0,29.67,SE,125,2.0,9.0,91,0.04,,,0.13,,2013-03-10 23:22:00,
2013-03-10 18:32:00,50.0,47.0,29.67,SE,125,2.0,9.0,91,0.04,,,0.13,,2013-03-10 23:32:00,
2013-03-10 18:43:00,50.0,47.0,29.67,SE,125,2.0,9.0,91,0.04,,,0.13,,2013-03-10 23:43:00,
2013-03-10 18:52:00,50.0,48.0,29.68,SSE,148,3.0,10.0,92,0.05,,,0.16,,2013-03-10 23:52:00,
2013-03-10 19:02:00,50.0,48.0,29.68,SSE,148,3.0,10.0,92,0.05,,,0.16,,2013-03-11 00:02:00,
2013-03-10 19:12:00,50.0,48.0,29.68,SSE,148,3.0,10.0,92,0.05,,,0.16,,2013-03-11 00:12:00,
2013-03-10 19:22:00,50.0,48.0,29.67,ESE,123,2.0,7.0,92,0.05,,,0.18,,2013-03-11 00:22:00,
2013-03-10 19:33:00,50.0,48.0,29.67,ESE,123,2.0,7.0,92,0.05,,,0.18,,2013-03-11 00:33:00,
2013-03-10 19:43:00,50.0,48.0,29.67,ESE,123,2.0,7.0,92,0.05,,,0.18,,2013-03-11 00:43:00,
2013-03-10 19:53:00,50.0,48.0,29.68,SE,128,5.0,11.0,92,0.03,,,0.19,,2013-03-11 00:53:00,
2013-03-10 20:02:00,50.0,48.0,29.68,SE,128,5.0,11.0,92,0.03,,,0.19,,2013-03-11 01:02:00,
2013-03-10 20:13:00,50.0,48.0,29.68,SE,128,5.0,11.0,92,0.03,,,0.19,,2013-03-11 01:13:00,
2013-03-10 20:22:00,49.0,47.0,29.69,SSE,157,5.0,12.0,93,-99.99,,,-99.99,,2013-03-11 01:22:00,
2013-03-10 20:32:00,49.0,47.0,29.69,SSE,157,5.0,12.0,93,-99.99,,,-99.99,,2013-03-11 01:32:00,
2013-03-10 20:43:00,49.0,47.0,29.69,SSE,157,5.0,12.0,93,-99.99,,,-99.99,,2013-03-11 01:43:00,
2013-03-10 20:53:00,49.0,47.0,29.70,SSE,151,2.0,4.0,93,0.03,,,0.22,,2013-03-11 01:53:00,
2013-03-10 21:02:00,49.0,47.0,29.70,SSE,151,2.0,4.0,93,0.03,,,0.22,,2013-03-11 02:02:00,
2013-03-10 21:12:00,49.0,47.0,29.70,SSE,151,2.0,4.0,93,0.03,,,0.22,,2013-03-11 02:12:00,
2013-03-10 21:22:00,49.0,47.0,29.70,SSE,151,2.0,4.0,93,0.03,,,0.22,,2013-03-11 02:22:00,
2013-03-10 21:32:00,49.0,47.0,29.70,SSE,151,2.0,4.0,93,0.03,,,0.22,,2013-03-11 02:32:00,
2013-03-10 21:53:00,50.0,48.0,29.71,SSE,155,4.0,9.0,93,0.01,,,0.23,,2013-03-11 02:53:00,
2013-03-10 22:02:00,50.0,48.0,29.71,SSE,155,4.0,9.0,93,0.01,,,0.23,,2013-03-11 03:02:00,
2013-03-10 22:12:00,50.0,48.0,29.71,SSE,155,4.0,9.0,93,0.01,,,0.23,,2013-03-11 03:12:00,
2013-03-10 22:22:00,50.0,48.0,29.71,South,179,3.0,9.0,93,0.02,,,0.25,,2013-03-11 03:22:00,
2013-03-10 22:32:00,50.0,48.0,29.71,South,179,3.0,9.0,93,0.02,,,0.25,,2013-03-11 03:32:00,
2013-03-10 22:43:00,50.0,48.0,29.71,South,179,3.0,9.0,93,0.02,,,0.25,,2013-03-11 03:43:00,
2013-03-10 22:53:00,49.0,47.0,29.70,SSW,195,5.0,11.0,93,0.02,,,0.25,,2013-03-11 03:53:00,
2013-03-10 23:02:00,49.0,47.0,29.70,SSW,195,5.0,11.0,93,0.02,,,0.25,,2013-03-11 04:02:00,
2013-03-10 23:12:00,49.0,47.0,29.70,SSW,195,5.0,11.0,93,0.02,,,0.25,,2013-03-11 04:12:00,
2013-03-10 23:22:00,49.0,47.0,29.70,SSE,168,4.0,8.0,93,0.00,,,0.25,,2013-03-11 04:22:00,
2013-03-10 23:32:00,49.0,47.0,29.70,SSE,168,4.0,8.0,93,0.00,,,0.25,,2013-03-11 04:32:00,
2013-03-10 23:43:00,49.0,47.0,29.70,SSE,168,4.0,8.0,93,0.00,,,0.25,,2013-03-11 04:43:00,
2013-03-10 23:53:00,49.0,47.0,29.70,SSW,197,4.0,6.0,93,0.00,,,0.25,,2013-03-11 04:53:00,